CAPE
321 1075 1595 2036 2153 2404 2383 2407 2378 1755 1699 1318 1404 1347 1113 1257 1461 1319 1240 1350 2014 2005 1709 1604 1507 1361 1160 633 81 434 162 381
0 602 1251 1867 2241 2375 2498 2364 2407 1971 1165 1257 1497 2156 1235 1285 1045 1112 1142 1820 1809 1626 1044 819 915 697 869 716 201 101 134 24
0 0 17 372 684 2130 2424 2507 2305 1774 1432 1265 1122 1181 1129 1423 1351 1522 1845 1450 970 556 713 472 400 174 207 338 273 24 121 65
0 0 0 270 717 607 1599 2296 2116 1524 1641 1491 1320 1181 1271 1267 1633 1523 1234 717 410 350 386 391 171 82 50 79 131 146 115 39
0 0 3 335 776 1108 1261 1700 1525 1600 1474 1210 1379 1608 1856 1648 1247 520 51 59 78 79 76 30 30 20 10 3 16 48 158 173
0 17 132 426 837 556 964 1052 1379 1540 1285 1818 2102 1859 1428 608 296 18 0 0 0 0 0 3 0 0 0 37 7 6 87 188
14 84 137 233 229 818 1177 1452 799 1300 1301 2011 2121 1687 750 147 33 0 0 0 0 4 0 0 1 9 21 1 2 11 66 109
19 89 150 127 97 759 1438 1291 1344 1351 1344 1824 1798 934 55 32 0 0 0 0 0 0 0 0 4 17 4 0 2 20 32 51
40 215 340 327 194 828 1151 1397 1376 1407 1371 1253 444 47 3 0 0 0 0 0 0 0 9 14 17 5 0 0 4 7 12 35
34 284 598 615 531 1056 1047 1572 1561 1467 887 141 0 0 0 0 0 0 0 0 0 5 5 0 6 1 5 2 5 11 0 0
0 137 305 549 916 1217 1278 1614 397 334 3 0 0 0 0 0 0 0 0 0 0 0 0 5 6 0 0 14 29 40 43 32
0 2 88 104 191 425 275 10 0 0 0 0 0 0 0 0 0 0 0 0 0 2 1 15 0 8 43 55 69 118 118 78
0 0 0 0 0 0 0 0 0 0 0 0 0 0 0 0 0 0 0 0 0 0 0 0 3 10 28 84 115 123 112 87
0 0 0 0 0 0 0 0 0 0 0 0 1 0 0 0 0 0 0 0 0 0 0 0 0 0 27 95 125 116 67 25
0 0 0 0 0 0 0 0 0 0 0 5 11 1 0 0 0 0 0 0 0 0 0 0 0 3 17 40 56 27 21 12
0 0 0 0 0 0 0 0 0 0 1 17 17 0 0 0 0 0 0 0 0 0 0 0 4 19 5 14 29 53 108 35
0 0 0 0 0 0 0 0 0 0 0 20 5 0 0 0 0 0 0 0 0 0 1 9 24 14 1 8 27 33 38 30
0 0 0 0 0 0 0 0 0 0 0 13 2 0 0 0 0 0 0 0 0 3 8 24 29 57 3 0 5 24 21 6
0 0 0 0 0 0 0 0 0 0 1 1 0 1 0 0 0 0 0 0 5 8 10 30 9 33 1 0 19 64 45 12
CIN
-83 -52 -58 -54 -65 -84 -93 -93 -80 -130 -91 -120 -93 -74 -72 -32 -8 -11 -15 -6 0 0 0 0 0 0 -2 -11 -57 0 -3 0
0 -115 -83 -92 -76 -96 -93 -84 -65 -87 -186 -147 -69 -4 -45 -32 -30 -21 -11 0 0 0 -1 -5 -3 -10 -3 0 -48 -3 0 -2
0 0 -437 -330 -246 -126 -94 -78 -80 -133 -146 -114 -109 -70 -49 -16 -7 -2 0 0 -6 -20 -11 -27 -38 -147 -109 -60 -50 -1 0 0
0 0 0 -402 -305 -322 -173 -92 -103 -158 -90 -76 -49 -51 -19 -3 0 0 0 -14 -34 -49 -40 -30 -96 -62 -60 -11 0 0 0 0
0 0 -419 -411 -354 -305 -245 -128 -147 -94 -91 -107 -52 -16 0 0 -1 -5 -75 -92 -94 -96 -97 -115 -88 -66 -58 0 0 0 0 0
0 -518 -449 -400 -334 -427 -258 -184 -118 -77 -64 -6 -2 -1 -3 -22 -14 -13 0 0 0 0 -4 -152 0 0 0 -10 0 0 0 0
-460 -488 -556 -488 -481 -252 -137 -88 -158 -81 -49 -9 -1 -5 -29 -47 -16 0 0 0 -86 -158 0 0 -19 -50 -41 -8 0 -2 -2 0
-432 -428 -449 -500 -526 -242 -122 -118 -94 -51 -44 -18 -4 -26 -36 -8 0 0 0 0 0 0 0 0 -88 -70 -31 0 0 -12 -15 -5
-345 -303 -308 -339 -408 -190 -125 -74 -45 -36 -32 -23 -33 -40 -1 0 0 0 0 0 0 0 -74 -89 -88 -98 0 0 0 0 -7 -16
-304 -193 -186 -190 -177 -81 -68 -16 -10 -10 -33 -34 0 0 0 0 0 0 0 0 0 -62 -79 0 -110 -26 -81 0 0 0 0 0
0 -223 -163 -110 -64 -17 -8 0 -55 -54 -25 0 0 0 0 0 0 0 0 0 0 0 0 -130 -159 0 0 -61 -35 -13 -3 -3
0 -158 -288 -282 -175 -71 -102 -67 0 0 0 0 0 0 0 0 0 0 0 0 0 -112 -24 -127 0 -75 -29 -20 -20 -9 -6 -16
0 0 0 0 0 0 0 0 0 0 0 0 0 0 0 0 0 0 0 0 0 0 -7 -3 -75 -24 -7 -2 -6 -13 -21 -20
0 0 0 0 0 0 0 0 0 0 0 0 -3 -2 -13 0 0 0 0 0 0 0 0 0 0 0 -1 0 -5 -13 -46 -26
0 0 0 0 0 0 0 0 0 0 0 -9 -3 -8 0 0 0 0 0 0 0 0 0 0 0 0 -2 -10 -10 -13 -23 -29
0 0 0 0 0 0 0 0 0 0 -11 -4 0 -3 0 0 0 0 0 0 0 0 0 0 0 0 0 0 -10 -9 -13 -11
0 0 0 0 0 0 0 0 0 0 -1 0 -8 0 0 0 0 0 0 0 0 0 0 0 0 0 0 -10 -8 -3 -12 -1
0 0 0 0 0 0 0 0 0 0 0 0 -1 0 0 0 0 0 0 0 0 0 0 0 -1 0 -1 0 -14 -12 -24 -2
0 0 0 0 0 0 0 0 0 0 0 -1 0 -1 0 0 0 0 0 0 0 0 0 0 0 0 0 0 -11 -2 -2 0
Wind_Speed
11 10 12 15 19 21 22 26 32 33 32 34 35 37 39 40 38 40 42 41 43 47 48 48 48 46 46 43 nan 40 38 38
nan 12 14 17 17 20 25 32 37 35 36 38 37 40 42 44 44 45 45 44 48 50 50 53 52 49 45 47 47 45 45 nan
nan nan nan 18 19 23 30 34 37 37 38 39 38 45 43 47 49 50 49 49 52 55 55 55 57 59 50 48 47 nan 47 nan
nan nan nan 20 22 27 31 34 39 40 41 41 42 47 47 47 49 54 53 54 58 58 58 58 60 nan nan nan 53 50 52 nan
nan nan nan 22 25 27 31 34 41 37 45 46 48 46 49 50 52 52 nan nan nan nan nan nan nan nan nan nan nan nan 55 50
nan nan 22 25 29 31 31 37 38 40 45 45 46 47 49 49 48 nan nan nan nan nan nan nan nan nan nan nan nan nan nan 54
nan nan 29 28 31 34 39 39 41 43 45 45 52 54 53 52 nan nan nan nan nan nan nan nan nan nan nan nan nan nan nan 52
nan nan 31 34 nan 38 40 41 44 48 50 51 52 51 nan nan nan nan nan nan nan nan nan nan nan nan nan nan nan nan nan nan
nan 31 34 36 37 39 43 45 49 52 55 56 55 nan nan nan nan nan nan nan nan nan nan nan nan nan nan nan nan nan nan nan
nan 32 35 37 39 41 46 46 49 51 54 56 nan nan nan nan nan nan nan nan nan nan nan nan nan nan nan nan nan nan nan nan
nan 37 40 40 41 43 44 46 50 51 nan nan nan nan nan nan nan nan nan nan nan nan nan nan nan nan nan nan nan nan nan nan
nan nan nan 43 44 46 48 nan nan nan nan nan nan nan nan nan nan nan nan nan nan nan nan nan nan nan nan nan nan 68 64 nan
nan nan nan nan nan nan nan nan nan nan nan nan nan nan nan nan nan nan nan nan nan nan nan nan nan nan nan nan 73 70 66 nan
nan nan nan nan nan nan nan nan nan nan nan nan nan nan nan nan nan nan nan nan nan nan nan nan nan nan nan nan 67 66 nan nan
nan nan nan nan nan nan nan nan nan nan nan nan nan nan nan nan nan nan nan nan nan nan nan nan nan nan nan nan nan nan nan nan
nan nan nan nan nan nan nan nan nan nan nan nan nan nan nan nan nan nan nan nan nan nan nan nan nan nan nan nan nan nan 66 nan
nan nan nan nan nan nan nan nan nan nan nan nan nan nan nan nan nan nan nan nan nan nan nan nan nan nan nan nan nan nan nan nan
nan nan nan nan nan nan nan nan nan nan nan nan nan nan nan nan nan nan nan nan nan nan nan nan nan nan nan nan nan nan nan nan
nan nan nan nan nan nan nan nan nan nan nan nan nan nan nan nan nan nan nan nan nan nan nan nan nan nan nan nan nan nan nan nan
Wind_Direction
302 320 307 312 316 321 322 318 320 317 310 304 300 308 307 301 300 298 298 299 302 303 303 305 304 305 310 311 nan 298 299 301
nan 284 301 308 313 314 315 317 319 311 304 301 301 301 299 300 300 300 300 300 301 304 305 304 308 312 312 312 311 309 308 nan
nan nan nan 291 294 306 314 319 319 308 302 300 299 299 301 302 302 303 305 301 303 303 306 309 312 309 310 311 313 nan 306 nan
nan nan nan 274 288 302 311 316 317 310 305 299 299 298 298 300 303 301 302 304 302 306 310 312 310 nan nan nan 311 314 312 nan
nan nan nan 287 287 290 305 306 300 299 302 303 309 304 301 300 301 299 nan nan nan nan nan nan nan nan nan nan nan nan 313 311
nan nan 264 270 277 287 289 290 294 293 299 302 302 297 294 295 292 nan nan nan nan nan nan nan nan nan nan nan nan nan nan 308
nan nan 264 267 271 276 277 288 288 294 299 304 308 304 300 297 nan nan nan nan nan nan nan nan nan nan nan nan nan nan nan 311
nan nan 284 287 nan 289 290 293 292 297 300 306 303 297 nan nan nan nan nan nan nan nan nan nan nan nan nan nan nan nan nan nan
nan 287 293 293 295 297 298 300 298 300 299 301 300 nan nan nan nan nan nan nan nan nan nan nan nan nan nan nan nan nan nan nan
nan 292 298 299 297 298 300 302 300 297 299 300 nan nan nan nan nan nan nan nan nan nan nan nan nan nan nan nan nan nan nan nan
nan 293 295 297 299 302 301 300 300 299 nan nan nan nan nan nan nan nan nan nan nan nan nan nan nan nan nan nan nan nan nan nan
nan nan nan 301 299 300 302 nan nan nan nan nan nan nan nan nan nan nan nan nan nan nan nan nan nan nan nan nan nan 321 321 nan
nan nan nan nan nan nan nan nan nan nan nan nan nan nan nan nan nan nan nan nan nan nan nan nan nan nan nan nan 321 319 320 nan
nan nan nan nan nan nan nan nan nan nan nan nan nan nan nan nan nan nan nan nan nan nan nan nan nan nan nan nan 321 319 nan nan
nan nan nan nan nan nan nan nan nan nan nan nan nan nan nan nan nan nan nan nan nan nan nan nan nan nan nan nan nan nan nan nan
nan nan nan nan nan nan nan nan nan nan nan nan nan nan nan nan nan nan nan nan nan nan nan nan nan nan nan nan nan nan 313 nan
nan nan nan nan nan nan nan nan nan nan nan nan nan nan nan nan nan nan nan nan nan nan nan nan nan nan nan nan nan nan nan nan
nan nan nan nan nan nan nan nan nan nan nan nan nan nan nan nan nan nan nan nan nan nan nan nan nan nan nan nan nan nan nan nan
nan nan nan nan nan nan nan nan nan nan nan nan nan nan nan nan nan nan nan nan nan nan nan nan nan nan nan nan nan nan nan nan